ASIASAT 8 (AMOS-7)

Last updated on Sat Aug 15 2026 00:02:59 GMT+0000 (Coordinated Universal Time)

1 40107U 14046A 26226.59141944 -.00000348 00000+0 00000+0 0 9996 2 40107 0.0189 104.7365 0001711 15.2658 161.2116 1.00271351102736
UTC large
Height (km)
Speed (km/s)
/
Latitude / Longitude
Inclination (degrees)
Orbital Period (minutes)
Azimuth
Elevation
Range (km)
Doppler Factor

Next 0 passes for location: London (51.5072 / 0.1276)

No passes found over London.
ASIASAT 8 (AMOS-7)